This demonstration page uses our WeatherBlox Daily Observations layout. Learn more.

Left ArrowRight Arrow

Hourly Observations for November 19, 2015

Temp ( °F °C ) Dew Point ( °F °C ) Humidity (%) Winds ( mph kmh ) Pressure ( in mb ) Visibility ( mi km ) Precip ( " mm )
12:53 am 00:53 Cloudy 65 18.3 63 17.2 93 93 S 3 6 29.97 1015 10 16 0.00 0.00
1:33 am 01:33 Cloudy with Light Rain 65 18.3 63 17.2 93 93 SSW 3 6 30.00 1016 10 16 0.00 0.03
1:53 am 01:53 Mostly Cloudy 65 18.3 62 16.7 90 90 Calm 29.97 1015 10 16 0.00 0.03
2:01 am 02:01 Partly Cloudy 64 17.8 62 16.7 93 93 Calm 30.00 1016 10 16 0.00 0.00
2:27 am 02:27 Partly Cloudy 64 17.8 62 16.7 93 93 Calm 30.00 1016 8 13 0.00 0.00
2:34 am 02:34 Mostly Cloudy with Mist and Fog 63 17 63 17 100 100 Calm 30.00 1016 3 4 0.00 0.00
2:38 am 02:38 Mostly Cloudy with Mist and Fog 63 17 61 16 94 94 Calm 30.00 1016 1 1 0.00 0.00
2:41 am 02:41 Partly Cloudy with Fog 62 16.7 61 16.1 96 96 Calm 30.00 1016 1 1 0.00 0.00
2:49 am 02:49 Partly Cloudy with Mist and Fog 63 17 61 16 94 94 Calm 30.00 1016 6 10 0.00 0.00
2:53 am 02:53 Partly Cloudy with Mist and Fog 63 17.2 61 16.1 93 93 Calm 29.98 1015 6 10 0.00 0.00
3:34 am 03:34 Mostly Cloudy with Mist and Fog 61 16 57 14 88 88 Calm 30.00 1016 4 6 0.00 0.00
3:53 am 03:53 Cloudy with Mist and Fog 60 15.6 58 14.4 93 93 SSE 3 6 29.98 1015 3 5 0.00 0.00
4:17 am 04:17 Cloudy with Mist and Fog 59 15 58 14.4 96 96 Calm 30.00 1016 3 5 0.00 0.00
4:45 am 04:45 Mostly Cloudy with Mist and Fog 60 15.6 59 15 96 96 Calm 30.00 1016 3 5 0.00 0.00
4:53 am 04:53 Mostly Cloudy with Mist and Fog 61 16.1 59 15 93 93 Calm 29.98 1015 3 5 0.00 0.00
5:34 am 05:34 Mostly Clear 61 16 57 14 88 88 NW 3 6 30.03 1017 10 16 0.00 0.00
5:53 am 05:53 Clear 59 15 57 13.9 93 93 Calm 30.01 1016 10 16 0.00 0.00
6:53 am 06:53 Clear 56 13.3 52 11.1 87 87 NNW 3 6 30.03 1017 10 16 0.00 0.00
7:53 am 07:53 Sunny 56 13.3 50 10 81 81 Calm 30.07 1018 10 16 0.00 0.00
8:53 am 08:53 Sunny 58 14.4 51 10.6 78 78 Calm 30.09 1019 10 16 0.00 0.00
9:53 am 09:53 Sunny 61 16.1 49 9.4 65 65 NW 8 13 30.11 1020 10 16 0.00 0.00
10:53 am 10:53 Sunny 64 17.8 49 9.4 58 58 NW 6 9 30.11 1020 10 16 0.00 0.00
11:53 am 11:53 Sunny 66 18.9 47 8.3 50 50 WNW 12 19 30.09 1019 10 16 0.00 0.00
12:53 pm 12:53 Sunny 68 20 45 7.2 44 44 VRB 7 11 30.08 1019 10 16 0.00 0.00
1:53 pm 13:53 Sunny 69 20.6 44 6.7 41 41 N 13 20 30.05 1018 10 16 0.00 0.00
2:53 pm 14:53 Sunny 70 21.1 44 6.7 39 39 VRB 7 11 30.05 1018 10 16 0.00 0.00
3:53 pm 15:53 Sunny 69 20.6 43 6.1 39 39 NNW 6 9 30.05 1018 10 16 0.00 0.00
4:53 pm 16:53 Sunny 67 19.4 40 4.4 37 37 NW 10 17 30.07 1018 10 16 0.00 0.00
5:53 pm 17:53 Clear 63 17.2 42 5.6 47 47 WNW 5 7 30.09 1019 10 16 0.00 0.00
6:53 pm 18:53 Clear 60 15.6 42 5.6 52 52 Calm 30.11 1020 10 16 0.00 0.00
7:53 pm 19:53 Clear 59 15 42 5.6 54 54 Calm 30.13 1020 10 16 0.00 0.00
8:53 pm 20:53 Clear 55 12.8 44 6.7 67 67 Calm 30.15 1021 10 16 0.00 0.00
9:53 pm 21:53 Clear 50 10 45 7.2 83 83 Calm 30.16 1021 10 16 0.00 0.00
10:53 pm 22:53 Clear 49 9.4 45 7.2 86 86 Calm 30.17 1022 10 16 0.00 0.00
11:53 pm 23:53 Clear 51 10.6 44 6.7 77 77 NW 6 9 30.17 1022 10 16 0.00 0.00

Powered by AerisWeather